STARLINK-34573, 64676

Orbit data source: Space-Track

STARLINK-34573, 64676 is a payload satellite owned by SpaceX/Seattle (US) in LEO that was launched on Sat, 28 Jun 2025 UTC via an FALCON 9 launch vehicle from the Air Force Eastern Test Range (AFETR). Payload-class satellites include a variety of spacecraft equipped with specific instruments for various scientific and technological missions. These include communications satellites like Starlink; space stations such as the ISS; scientific satellites like the Hubble; Earth observation satellites from companies like Planet Labs, Umbra, and HawkEye 360; GPS; miniature CubeSats for education and research; and military/defense satellites.

Loading next visibility...
Identifier
64676, 2025-139N
Orbit
LEO
Country
Flag of USUS
Related business
Manufacturer
SpaceX/Seattle
Mission
Operational Commercial Communications
Bus & Motor
STARLINK V2MO, Unknown motor
Mass
575 kg wet, ~530 kg dry
Launch date (UTC)
2025-06-28 (1 year ago)
Launch vehicle
FALCON 9
Launch site
Air Force Eastern Test Range (AFETR)
Object type
Payload
Rocket body
Debris
Shape & HBR
Box + 2 Pan, 17.7 m
Radar Cross Section
36.964 m², Large (>1 m²)

Expand to show TLE details & history
Last TLE update: 1 day ago

TLE from 1 day ago
0 STARLINK-34573
1 64676U 25139N   26170.98938477  .00018272  00000-0  55034-3 0  9990
2 64676  53.1597   9.9531 0001002  86.9010 273.2107 15.34415048 55978
Epoch: 2026-06-19T23:44Z
TLE epoch observation values (Epoch: 2026-06-19T23:44:42.844Z)
Latitude
-0.00002°
Longitude
105.56412°
Altitude
463.522 km
Speed
7.636 km/s
True Right ascension
00h 39m 48s
True Declination
0° 00' 00"
Sunlit
Object was in daylight at epoch
Visualization orbit readout
Latitude
Unknown
Longitude
Unknown
Altitude
Unknown
Speed
Unknown
Apparent Right ascension
Unknown
Apparent Declination
Unknown
Sunlit
N/A
Visualization observer readout
Local Sidereal Time
10:19:39
Azimuth
Unknown
Elevation
Unknown
Doppler factor
Unknown
Orbital elements
Apogee altitude
463.601 km
Perigee altitude
462.23 km
Semi-major axis
6,841.052 km
Eccentricity
0.0001
Inclination
53.1597°
RAAN
9.9531°
Arg. of periapsis
86.901°
True anomaly
273.19924°
Mean anomaly
273.2107°
Eccentric anomaly
273.20497°
Mean motion
3.83583 °/min
Orbital period
93.85 mins
BSTAR
0.00055034
Loading maneuver chart data...
Computing Atmospheric mass density...
Loading historical data...
Loading historical data...
Loading historical data...
Loading historical data...
Loading historical data...
Loading historical data...
Loading historical data...

Documentation

Showing up to 5 results
|